Capitol Logistics 438


KPHL
Philadelphia International Airport
Philadelphia, Pennsylvania, US
KRFD
Chicago/Rockford International Airport
Rockford, Illinois, US

Activity Log

Date Flight Route Aircraft Duration
10/10/2019 CPX438 PTW SARAA RAV PSB J60 JOT QUOTE B738 2h 00m
09/26/2019 CPX438 PTW SARAA RAV PSB J60 JOT QUOTE B738 1h 48m

Route Details

Aircraft Information
Primary: Boeing 737-800BCF
Backup: Not Available
Route Data
Distance: 643nm
Sched. Duration: 1h 55m
Avg. Duration: 1h 74m (+19m)
Times Flown: 2
Recm'd Route: PTW SARAA RAV PSB J60 JOT QUOTE
Planned Altitude: 30,000ft
Origin Wx: KPHL 240854Z 33009KT 10SM FEW250 M04/M14 A3026 RMK AO2 SLP247 T10391139 53006
Dest. Wx: KRFD 240935Z 14012KT 1 1/2SM -SN OVC020 M02/M07 A3011 RMK AO2 TWR VIS 2 P0001 T10221067
Notes:

Financial History
Total Freight: 72,865lbs
Average Load: 36,433lbs/flt
Fuel Used: 20,831lbs
Avg. Fuel Used: 10,416lbs/flt
Fuel Expense: $18,748
Avg. Fuel Expense: $9,374
Avg. Fuel Cost: $0.90/lbs
Total Gross Income: $91,081
Pilot Pay: $458
Total Expenses: $9,941
Total Revenue: $61,484
Average Revenue: $45,540.63